Location: Brunembert
(50.7122°N, 1.8935°E)
Time: 02:07:45
(UTC+00:00)

Cosmos 1500 Rocket - Pass Details

Date: 01 August 2021
Orbit: 602 x 632 km, 82.5° (Epoch: 18 September)

Event Time Altitude Azimuth Distance (km) Brightness Sun altitude
Exits shadow 20:34:47 - 111° (ESE) 2,088 5.7 -8.2°
Reaches altitude 10° 20:35:17 10° 105° (ESE) 1,997 5.6 -8.3°
Maximum altitude 20:37:06 12° 81° (E) 1,847 5.6 -8.5°
Drops below altitude 10° 20:38:56 10° 56° (NE) 2,011 6.1 -8.7°
Sets 20:42:25 0° 28° (NNE) 2,931 7.2 -9.1°
